Briseno, Mexico

6:07 PM CST on January 23, 2018 (GMT -0600)
Gen Leobardo C Ruiz International | | Change Station

Elev 7021 ft 22.90 °N, 102.68 °W | Updated 1 hour ago

Overcast
Overcast
64 °F
Feels Like 64 °F
N
12
Wind Variable Wind from NW

Today
High -- | Low -- °F
--% Chance of Precip.
Yesterday
High -- | Low -- °F
Precip. -- in
Pressure 30.17 in
Visibility 10.0 miles
Clouds Scattered Clouds 10000 ft
Overcast 18000 ft
Dew Point 30 °F
Humidity 28%
Rainfall 0.00 in
Snow Depth Not available.
7:34 AM 6:33 PM
Waxing Crescent, 40% visible
METAR MMZC 232250Z 31010KT 10SM SCT100 OVC180 18/M01 A3017 RMK 8/087
Pressure 30.17 in
Visibility 10.0 miles
Clouds Scattered Clouds 10000 ft
Overcast 18000 ft
Dew Point 30 °F
Humidity 28%
Rainfall 0.00 in
Snow Depth Not available.
7:34 AM 6:33 PM
Waxing Crescent, 40% visible
METAR MMZC 232250Z 31010KT 10SM SCT100 OVC180 18/M01 A3017 RMK 8/087

Get Severe Weather Alerts

Thanks for signing up!

Be on the lookout for a verification email in your inbox.

You'll start receiving the daily forecast at 6 AM.

×

10-Day Weather Forecast

No radar image for this location.
×

Almanac

Astronomy

Jan. 23, 2018 Rise Set
Actual Time
Civil Twilight
Nautical Twilight
Astronomical Twilight
Moon
Length of Visible Light
Length of Day
Tomorrow will be .
, % of the Moon is Illuminated

Today's Extremes

Country Highs Country Lows

Community

WunderPhotos

Category 6

Welcome to Category 6. This is the collective home for Weather Underground's featured writeups by Dr. Jeff Masters (right), Bob Henson (left), Chris Burt, and other regular contributors.

Nearby

Air Quality

  Air Quality AQ Index Pollutant
Not available.

Snow Depth

Station Depth Elevation

Earthquake Activity

City Distance Mag. Time & Date
Minimum magnitude displayed is 2.5.

Coastal Water Temperatures

Place Temperature

Stations

Nearby Weather Stations

Station Location Temp. Windchill Dew Point Humidity Wind Precip. Elev Updated Type